| time (UTC) | temp C | wind direction | speed KPH | gust KPH | rain 1hr cm | rain 24hr cm | rain mn cm | humidity % | barometer mb |
| 20260506060314 | 13 | 110 | 9.7 | 0.0 | 0.00 | 0.00 | 0.00 | 82 | 1008.0 |
| 20260506050313 | 12 | 60 | 4.8 | 0.0 | 0.00 | 0.00 | 0.00 | 87 | 1008.0 |
| 20260506043305 | 12 | 0 | 1.6 | 0.0 | 0.00 | 0.00 | 0.00 | 87 | 1008.0 |
| 20260506040249 | 11 | 0 | 0.0 | 0.0 | 0.00 | 0.00 | 0.00 | 93 | 1007.0 |
| 20260506033223 | 11 | 0 | 4.8 | 0.0 | 0.00 | 0.00 | 0.00 | 100 | 1007.0 |
| 20260506030248 | 11 | 270 | 4.8 | 0.0 | 0.00 | 0.00 | 0.00 | 100 | 1007.0 |
| 20260506023304 | 12 | 0 | 3.2 | 0.0 | 0.00 | 0.00 | 0.00 | 93 | 1007.0 |
| 20260506020314 | 12 | 0 | 1.6 | 0.0 | 0.00 | 0.00 | 0.00 | 100 | 1007.0 |
| 20260506013231 | 12 | 0 | 3.2 | 0.0 | 0.00 | 0.00 | 0.00 | 100 | 1007.0 |
| 20260506010306 | 12 | 0 | 3.2 | 0.0 | 0.00 | 0.00 | 0.00 | 93 | 1007.0 |
| 20260506003237 | 12 | 0 | 1.6 | 0.0 | 0.00 | 0.00 | 0.00 | 93 | 1007.0 |
| 20260506000249 | 12 | 290 | 8.0 | 0.0 | 0.00 | 0.00 | 0.00 | 100 | 1007.0 |
| 20260505233304 | 12 | 290 | 8.0 | 0.0 | 0.00 | 0.00 | 0.00 | 93 | 1007.0 |
| 20260505230306 | 13 | 290 | 9.7 | 0.0 | 0.00 | 0.00 | 0.00 | 87 | 1007.0 |
| 20260505223305 | 13 | 330 | 8.0 | 0.0 | 0.00 | 0.00 | 0.00 | 93 | 1007.0 |
| 20260505220249 | 13 | 350 | 8.0 | 0.0 | 0.00 | 0.00 | 0.00 | 87 | 1007.0 |
| 20260505215904 | 13 | 350 | 8.0 | 0.0 | 0.00 | 0.00 | 0.00 | 87 | 1007.0 |
| 20260505213305 | 15 | 270 | 4.8 | 0.0 | 0.00 | 0.00 | 0.00 | 82 | 1007.0 |
| 20260505210306 | 15 | 0 | 3.2 | 0.0 | 0.00 | 0.00 | 0.00 | 82 | 1006.0 |
| 20260505205812 | 15 | 0 | 3.2 | 0.0 | 0.00 | 0.00 | 0.00 | 82 | 1006.0 |
| 20260505203305 | 17 | 290 | 19.3 | 0.0 | 0.00 | 0.00 | 0.00 | 59 | 1006.0 |
| 20260505200307 | 18 | 270 | 22.5 | 0.0 | 0.00 | 0.00 | 0.00 | 52 | 1005.0 |
| 20260505200018 | 18 | 270 | 22.5 | 0.0 | 0.00 | 0.00 | 0.00 | 52 | 1005.0 |
| 20260505193305 | 17 | 0 | 3.2 | 0.0 | 0.00 | 0.00 | 0.00 | 63 | 1004.0 |
| 20260505190306 | 17 | 0 | 3.2 | 0.0 | 0.00 | 0.00 | 0.00 | 63 | 1003.0 |
| 20260505183238 | 18 | 0 | 1.6 | 0.0 | 0.00 | 0.00 | 0.00 | 59 | 1003.0 |
| 20260505180307 | 20 | 0 | 1.6 | 0.0 | 0.00 | 0.00 | 0.00 | 56 | 1003.0 |
| 20260505173304 | 20 | 0 | 3.2 | 0.0 | 0.00 | 0.00 | 0.00 | 60 | 1003.0 |
| 20260505170306 | 21 | 0 | 3.2 | 0.0 | 0.00 | 0.00 | 0.00 | 49 | 1004.0 |
| 20260505163305 | 21 | 0 | 3.2 | 0.0 | 0.00 | 0.00 | 0.00 | 49 | 1004.0 |
| 20260505160242 | 21 | 40 | 4.8 | 0.0 | 0.00 | 0.00 | 0.00 | 49 | 1004.0 |
| 20260505153245 | 21 | 60 | 9.7 | 0.0 | 0.00 | 0.00 | 0.00 | 52 | 1004.0 |
| 20260505150247 | 21 | 50 | 11.3 | 0.0 | 0.00 | 0.00 | 0.00 | 49 | 1005.0 |
| 20260505140321 | 21 | 50 | 8.0 | 0.0 | 0.00 | 0.00 | 0.00 | 56 | 1005.0 |
| 20260505130255 | 23 | 310 | 11.3 | 0.0 | 0.00 | 0.00 | 0.00 | 33 | 1005.0 |
| 20260505123238 | 26 | 0 | 9.7 | 0.0 | 0.00 | 0.00 | 0.00 | 29 | 1005.0 |
| 20260505120240 | 25 | 300 | 12.9 | 0.0 | 0.00 | 0.00 | 0.00 | 31 | 1005.0 |
| 20260505113237 | 26 | 0 | 11.3 | 0.0 | 0.00 | 0.00 | 0.00 | 31 | 1006.0 |
| 20260505110258 | 25 | 20 | 11.3 | 0.0 | 0.00 | 0.00 | 0.00 | 33 | 1006.0 |
| 20260505100313 | 23 | 0 | 8.0 | 0.0 | 0.00 | 0.00 | 0.00 | 36 | 1007.0 |
| 20260505093304 | 22 | 0 | 4.8 | 0.0 | 0.00 | 0.00 | 0.00 | 40 | 1007.0 |
| 20260505090313 | 22 | 140 | 4.8 | 0.0 | 0.00 | 0.00 | 0.00 | 40 | 1007.0 |
| 20260505083305 | 21 | 70 | 4.8 | 0.0 | 0.00 | 0.00 | 0.00 | 49 | 1007.0 |
| 20260505080252 | 21 | 0 | 3.2 | 0.0 | 0.00 | 0.00 | 0.00 | 49 | 1008.0 |
| 20260505073238 | 18 | 110 | 4.8 | 0.0 | 0.00 | 0.00 | 0.00 | 52 | 1008.0 |
| 20260505070322 | 17 | 100 | 4.8 | 0.0 | 0.00 | 0.00 | 0.00 | 55 | 1008.0 |